SCP
0 0 0 0 0 0 0 0 0 0 0 0 0 0 0 0 0 0 0 0 0 0 0 0 0 0 0 0 0 0 0 0 0 0 0 1 1 2 3 3 3 2 2
0 0 0 0 0 0 0 0 0 0 0 0 0 0 0 0 0 0 0 0 0 0 0 0 0 0 0 0 0 0 0 0 0 0 0 0 1 1 2 2 3 2 2
0 0 0 0 0 0 0 0 0 0 0 0 0 0 0 0 0 0 0 0 0 0 0 0 0 0 0 0 0 0 0 0 0 0 0 0 0 0 1 1 2 2 2
0 0 0 0 0 0 0 0 0 0 0 0 0 0 0 0 0 0 0 0 0 0 0 0 0 0 0 0 0 0 0 0 0 0 0 0 0 0 0 1 1 2 2
0 0 0 0 0 0 0 0 0 0 0 0 0 0 0 0 0 0 0 0 0 0 0 0 0 0 0 0 0 0 0 0 0 0 0 0 0 0 0 0 0 1 1
0 0 0 0 0 0 0 0 0 0 0 0 0 0 0 0 0 0 0 0 0 0 0 0 0 0 0 0 0 0 0 0 0 0 0 0 0 0 0 0 0 0 1
0 0 0 0 0 0 0 0 0 0 0 0 0 0 0 0 0 0 0 0 0 0 0 0 0 0 0 0 0 0 0 0 0 0 0 0 0 0 0 0 0 0 0
0 0 0 0 0 0 0 0 0 0 0 0 0 0 0 0 0 0 0 0 0 0 0 0 0 0 0 0 0 0 0 0 0 0 0 0 0 0 0 0 0 0 0
0 0 0 0 0 0 0 0 0 0 0 0 0 0 0 0 0 0 0 0 0 0 0 0 0 0 0 0 0 0 0 0 0 0 0 0 0 0 0 0 0 0 0
0 0 0 0 0 0 0 0 0 0 0 0 0 0 0 0 0 0 0 0 0 0 0 0 0 0 0 0 0 0 0 0 0 0 0 0 0 0 0 0 0 0 0
0 0 0 0 0 0 0 0 0 0 0 0 0 0 0 0 0 0 0 0 0 0 0 0 0 0 0 0 -0 0 0 0 0 0 0 0 0 0 0 0 0 0 0
0 0 0 0 0 0 0 0 0 0 0 0 0 0 0 0 0 0 0 0 0 0 0 0 0 0 -0 -0 0 0 0 0 0 0 0 0 0 0 0 0 0 0 0
0 0 0 0 0 0 0 0 0 0 0 0 0 0 0 0 0 0 0 0 0 0 0 0 0 0 0 0 0 0 0 0 0 0 0 0 0 0 0 0 0 0 0
0 0 0 0 0 0 0 0 0 0 0 0 0 0 0 0 0 0 0 0 0 0 0 0 0 0 0 0 0 0 0 0 0 0 0 0 0 0 0 0 0 0 0
0 0 0 0 0 0 0 0 0 0 0 0 0 0 0 0 0 0 0 0 0 0 0 0 0 0 0 0 0 0 0 0 0 0 0 0 0 0 0 0 0 0 0
0 0 0 0 0 0 0 0 0 0 0 0 0 0 0 0 0 0 0 0 0 0 0 0 0 0 0 0 0 0 0 0 0 0 0 0 0 0 0 0 0 0 0
0 0 0 0 0 0 0 0 0 0 0 0 0 0 0 0 0 0 0 0 0 0 0 0 0 0 0 0 0 0 0 0 0 0 0 0 0 0 0 0 0 0 0
0 0 0 0 0 0 0 0 0 0 0 0 0 0 0 0 0 0 0 0 0 0 0 0 0 0 0 0 0 0 0 0 0 0 0 0 0 0 0 0 0 0 0
0 0 0 0 0 0 0 0 0 0 0 0 0 0 0 0 0 0 0 0 0 0 0 0 0 0 0 0 0 0 0 0 0 0 0 0 0 0 0 0 0 0 0
0 0 0 0 0 0 0 0 0 0 0 0 0 0 0 0 0 0 0 0 0 0 0 0 0 0 0 0 0 0 0 0 0 0 0 0 0 0 0 0 0 0 0
0 0 0 0 0 0 0 0 0 0 0 0 0 0 0 0 0 0 0 0 0 0 0 0 0 0 0 0 0 0 0 0 0 0 0 0 0 0 0 0 0 0 0
0 0 0 0 0 0 0 0 0 0 0 0 0 0 0 0 0 0 0 0 0 0 0 0 0 0 0 0 0 0 0 0 0 0 0 0 0 0 0 0 0 0 0
0 0 0 0 0 0 0 0 0 0 0 0 0 0 0 0 0 0 0 0 0 0 0 0 0 0 0 0 0 0 0 0 0 0 0 0 0 0 0 0 0 0 0
0 0 0 0 0 0 0 0 0 0 0 0 0 0 0 0 0 0 0 0 0 0 0 0 0 0 0 0 0 0 0 0 0 0 0 0 0 0 0 0 0 0 0
0 0 0 0 0 0 0 0 0 0 0 0 0 0 0 0 0 0 0 0 0 0 0 0 0 0 0 0 0 0 0 0 0 0 0 0 0 0 0 0 0 0 0
0 0 0 0 0 0 0 0 0 0 0 0 0 0 0 0 0 0 0 0 0 0 0 0 0 0 0 0 0 0 0 0 0 0 0 0 0 0 0 0 0 0 0
Wind_Speed
5 5 4 3 3 2 2 2 2 4 4 5 5 6 6 6 5 5 5 13 15 14 13 13 13 14 15 16 17 17 18 18 18 17 17 16 14 12 12 12 12 15 19
6 5 5 4 3 2 2 2 3 3 3 4 5 6 6 6 5 6 5 8 13 13 12 12 12 13 14 14 15 15 16 17 17 18 18 18 17 15 14 13 13 14 17
7 6 5 4 3 3 3 2 3 3 3 4 4 5 5 6 6 6 6 5 6 10 12 13 13 13 14 15 15 16 17 17 16 16 16 16 17 18 18 16 15 14 15
7 6 5 4 4 3 2 2 2 3 3 3 4 4 5 5 5 6 5 5 4 5 7 12 13 14 14 15 15 17 19 19 17 15 14 15 16 17 18 17 17 17 16
7 6 5 4 4 3 2 2 3 2 2 3 4 4 5 5 5 5 5 6 5 4 4 7 11 12 14 16 17 19 20 21 20 18 18 18 18 16 16 17 17 17 17
7 6 5 6 5 4 3 2 3 2 1 2 4 5 5 4 4 3 4 4 5 5 5 5 5 8 15 18 20 20 20 21 19 19 19 20 20 19 17 17 19 19 18
8 7 6 5 5 4 4 4 3 3 2 2 3 5 5 4 3 1 2 3 3 4 6 6 6 6 7 18 20 21 20 22 23 24 21 20 22 22 20 20 20 20 21
8 8 8 6 5 4 4 3 3 3 2 3 3 3 5 6 5 3 3 3 3 4 7 9 8 9 8 6 12 21 23 25 26 25 22 24 24 23 21 21 22 22 21
8 7 8 6 6 5 5 4 4 5 4 2 2 3 1 3 5 4 4 3 4 5 4 4 6 7 8 5 6 14 22 23 24 23 25 26 24 22 22 24 25 24 22
9 8 8 7 7 5 6 5 4 4 5 3 2 2 2 2 2 6 4 2 4 4 5 6 6 6 7 5 9 17 20 22 22 23 24 23 24 26 26 26 26 24 24
8 8 8 7 7 6 6 6 5 5 4 4 3 2 1 0 2 2 8 8 6 3 4 5 5 6 6 6 6 12 21 22 22 23 24 25 26 26 26 25 26 26 26
7 9 8 7 7 6 6 6 5 6 5 5 4 3 3 2 2 2 4 5 10 8 8 6 5 5 4 5 8 17 21 23 24 26 27 28 28 28 27 26 26 27 27
8 12 9 8 7 6 6 6 5 6 7 6 4 3 3 3 2 2 4 5 5 6 6 3 3 3 3 4 7 21 20 24 25 27 29 30 30 30 29 28 28 29 29
10 12 10 10 9 8 8 7 5 5 5 6 5 4 2 2 1 1 2 4 7 5 5 4 2 0 3 6 12 22 13 23 26 28 31 32 32 31 30 31 31 31 32
8 11 11 12 11 10 10 9 6 6 6 5 5 4 3 1 1 1 0 1 4 7 5 2 1 2 4 6 13 11 12 21 28 30 32 32 32 32 32 32 33 33 34
10 13 12 12 11 11 10 8 6 6 7 6 4 4 3 2 1 1 1 2 3 5 8 4 2 4 6 9 16 12 13 26 27 28 30 31 31 32 32 33 33 34 34
14 15 15 14 13 12 11 9 8 8 8 7 6 5 4 3 2 2 3 4 5 5 10 10 4 5 9 12 12 11 12 14 14 25 29 31 31 31 32 33 33 34 34
15 15 15 15 14 13 11 11 10 9 9 9 7 6 6 4 5 4 4 5 5 6 6 15 13 10 14 14 14 15 14 14 14 24 30 31 31 31 31 31 31 32 33
16 16 16 16 15 13 12 11 10 9 9 8 8 8 7 7 7 6 5 5 5 6 7 11 16 13 13 13 16 15 16 14 15 18 24 26 28 30 30 31 31 31 32
18 18 16 15 14 13 13 12 11 10 9 8 8 8 8 8 7 6 5 5 5 6 8 11 14 14 14 15 14 14 16 11 12 13 18 22 26 30 31 32 31 30 31
17 17 15 14 13 12 12 13 12 11 10 9 8 8 8 10 11 9 6 6 6 6 7 10 13 15 15 14 14 14 18 16 14 10 13 13 13 13 15 22 26 29 32
15 15 16 16 15 12 19 22 15 12 11 10 9 8 8 9 11 13 14 13 13 10 10 11 14 16 19 18 17 16 18 20 21 6 9 13 10 14 13 12 24 33 34
16 16 16 16 16 17 25 25 22 13 11 9 9 8 6 6 7 7 10 14 14 19 21 17 18 20 21 19 20 22 20 21 23 16 15 21 11 16 15 18 32 35 35
16 16 16 16 15 17 26 26 24 13 10 10 9 8 7 6 7 8 8 8 11 13 17 15 16 19 19 20 20 23 24 24 25 18 15 21 17 15 16 14 27 34 35
14 14 13 13 13 15 25 25 22 9 9 10 9 9 8 8 11 13 9 9 12 13 18 23 26 27 31 33 29 19 18 18 22 19 9 17 19 17 16 15 17 30 33
13 13 12 11 11 11 21 24 21 7 8 8 7 7 10 12 12 13 8 9 12 12 11 13 18 20 20 22 27 19 15 16 20 21 10 14 18 16 20 15 13 13 18
Wind_Direction
148 140 131 124 124 126 117 85 58 49 37 24 18 9 352 340 331 330 326 330 336 340 344 345 346 347 347 346 342 337 333 330 328 325 323 323 316 309 294 276 269 254 241
152 144 136 136 144 151 144 115 84 63 40 19 7 356 336 324 321 323 320 321 327 336 343 347 352 353 352 350 346 342 338 334 331 328 327 328 328 325 320 308 286 272 254
154 145 143 150 160 158 141 122 94 77 53 23 357 337 322 315 320 320 317 312 314 325 337 346 348 350 355 354 351 349 343 336 331 327 324 326 327 326 323 321 317 298 279
156 147 148 156 163 151 130 104 67 59 39 13 340 322 313 308 320 314 311 306 305 312 329 337 342 349 355 355 355 351 344 338 336 333 334 332 328 323 317 314 314 314 302
157 148 151 157 156 139 120 103 74 70 28 354 330 317 309 314 321 316 315 310 313 316 323 337 349 352 357 357 354 348 342 337 336 337 338 334 329 320 318 319 317 309 305
159 151 154 161 155 143 136 125 113 84 47 340 329 320 304 313 310 304 309 320 334 351 10 12 6 358 1 356 350 340 332 327 330 333 334 334 332 333 334 331 329 324 311
166 161 158 157 160 156 154 147 127 102 59 8 20 345 329 322 312 239 314 339 11 23 31 28 14 6 355 351 345 332 326 326 327 323 322 327 325 322 324 322 319 317 317
173 170 163 161 164 149 147 158 152 127 83 40 71 30 348 339 330 343 329 338 23 26 23 14 8 360 343 333 326 327 325 321 317 311 317 321 315 312 315 316 314 309 305
175 170 167 159 161 153 160 178 177 144 132 83 79 112 74 300 296 297 316 339 9 14 10 356 347 331 314 314 319 321 319 318 314 315 318 311 309 311 314 313 307 302 302
177 172 167 164 163 159 166 180 193 150 132 132 103 96 140 163 306 316 309 331 346 348 342 329 320 305 301 305 310 318 320 318 315 313 311 313 314 309 305 301 298 297 297
179 173 169 168 169 164 169 176 178 151 131 139 144 138 128 119 209 260 305 319 322 309 309 301 293 292 297 306 314 321 327 325 322 320 318 316 311 305 300 297 295 294 292
182 180 173 173 174 169 171 171 177 154 134 133 142 152 160 170 183 204 264 299 303 305 303 287 277 281 292 308 326 336 335 329 324 320 315 311 308 306 303 300 296 293 291
188 187 175 174 175 174 165 159 166 158 145 148 158 166 174 189 194 214 271 284 274 279 280 273 246 253 311 5 354 337 327 322 318 314 310 306 303 301 300 297 295 294 293
185 179 173 169 168 165 162 160 165 170 151 150 161 162 167 192 205 246 283 306 302 281 234 246 271 204 42 7 333 327 323 316 312 309 305 301 299 297 295 293 291 290 289
168 169 171 170 169 167 166 165 172 172 155 150 154 155 157 160 146 103 17 310 292 302 291 229 57 87 7 338 321 318 313 309 307 305 302 298 296 294 292 289 288 287 285
167 168 172 170 169 168 168 166 167 170 154 142 137 136 132 122 118 127 235 254 246 260 280 253 271 302 328 318 308 307 302 301 302 301 299 297 295 292 289 286 284 283 280
170 174 173 170 172 172 170 169 173 172 154 141 141 146 161 169 205 217 231 246 254 258 275 286 285 311 314 307 303 298 294 294 292 293 293 292 290 288 286 284 282 281 278
173 174 173 172 174 174 173 173 174 173 159 156 158 162 180 186 204 216 227 246 256 262 280 297 306 314 311 308 302 299 297 292 287 287 288 288 288 287 284 281 280 280 278
173 174 174 175 175 174 174 174 173 173 165 160 161 171 186 197 211 216 224 241 256 273 282 292 300 306 303 303 303 295 287 282 280 282 286 286 286 285 285 285 285 285 284
174 176 177 175 173 171 171 172 173 169 162 161 166 178 193 206 216 217 225 235 247 264 277 283 290 297 298 299 295 297 296 285 284 286 283 280 280 281 280 281 280 282 285
177 175 171 171 170 170 173 174 174 166 161 164 174 188 204 215 222 220 218 217 227 246 263 274 283 290 292 296 296 298 295 296 285 277 280 275 274 270 269 271 274 278 282
172 171 173 171 172 176 183 182 171 165 164 170 178 193 210 220 234 246 253 255 251 253 259 267 277 281 287 291 294 293 293 294 292 268 269 280 275 276 272 266 271 275 278
171 175 175 175 176 182 184 181 174 164 167 172 180 194 208 214 215 237 256 267 272 272 271 274 277 280 287 292 292 289 284 282 281 284 286 283 271 269 269 269 273 274 276
175 178 179 179 177 186 184 181 175 165 165 173 187 198 210 222 230 240 248 254 258 262 266 271 274 280 282 285 283 283 282 280 277 271 264 274 277 271 271 264 268 270 273
174 177 176 177 177 186 185 182 173 157 167 181 194 201 213 224 240 255 261 261 268 269 277 281 283 285 288 292 293 292 290 289 287 285 266 269 276 277 272 268 266 270 270
169 171 173 174 173 180 186 183 170 158 171 182 197 210 219 225 238 255 257 260 273 282 287 288 289 291 294 291 288 280 281 281 281 283 274 266 273 276 278 269 264 266 267